User: anonymous   Login
Location: Unspecified
(0.0000°N, 0.0000°E)
Time: 07:15:04
(UTC+00:00)
Language:

Megsat 1 - Orbit

View from above orbital plane
View from above orbital plane
View from above satellite
View from above satellite

Ground track
Ground track

The orbit data is extracted from the following two-line orbital elements,

1 26545U 00057A   17178.83293153 +.00000002 +00000-0 +18095-4 0  9991
2 26545 064.5554 054.0233 0040396 223.3602 136.4325 14.84759447905933
Epoch (UTC): 27 June 2017 19:59:25
Eccentricity: 0.0040396
inclination: 64.5554°
perigee height: 586 km
apogee height: 642 km
right ascension of ascending node: 54.0233°
argument of perigee: 223.3602°
revolutions per day: 14.84759447
mean anomaly at epoch: 136.4325°
orbit number at epoch: 90593

The dashed part of the orbit path shows where the satellite is in the earth's shadow,  

DLR